"read_dt","SO2 (ppb)","flags","PMT voltage (V)","lamp voltage (V)","lamp intensity (Hz)","internal temp (C)","react chamber temp (C)","sample flow (l/min)","pres (mmHg)","SO2 bkg (ppb)","SO2 coefficient"
2016-05-12 00:00:00,1845E-3,5C000400,-0724,0833,12057,028.9,045.5,0.254,751.5,01.17,0.508
2016-05-12 00:01:00,1832E-3,5C000400,-0724,0834,12172,028.9,045.5,0.254,751.5,01.17,0.508
2016-05-12 00:02:00,2055E-3,5C000400,-0724,0834,12240,028.9,045.5,0.253,751.5,01.17,0.508
2016-05-12 00:03:00,1918E-3,5C000400,-0724,0834,12247,028.9,045.5,0.254,751.5,01.17,0.508
2016-05-12 00:04:00,1885E-3,5C000400,-0724,0833,12224,028.9,045.5,0.254,751.5,01.17,0.508
2016-05-12 00:05:00,1833E-3,5C000400,-0724,0833,12179,028.9,045.4,0.253,751.5,01.17,0.508
2016-05-12 00:06:00,1838E-3,5C000400,-0724,0833,12182,029.0,045.5,0.254,751.5,01.17,0.508
2016-05-12 00:07:00,1802E-3,5C000400,-0724,0834,12141,028.9,045.5,0.254,751.5,01.17,0.508
2016-05-12 00:08:00,1989E-3,5C000400,-0724,0833,12050,029.0,045.4,0.254,751.5,01.17,0.508
2016-05-12 00:09:00,1972E-3,5C000400,-0724,0834,12257,028.9,045.5,0.254,751.5,01.17,0.508
2016-05-12 00:10:00,1901E-3,5C000400,-0724,0834,12270,029.0,045.5,0.253,751.4,01.17,0.508
2016-05-12 00:11:00,1903E-3,5C000400,-0724,0834,12222,029.0,045.5,0.254,751.5,01.17,0.508
2016-05-12 00:12:00,1893E-3,5C000400,-0724,0834,12143,029.0,045.5,0.254,751.5,01.17,0.508
2016-05-12 00:13:00,1902E-3,5C000400,-0724,0834,12131,029.0,045.4,0.253,751.5,01.17,0.508
2016-05-12 00:14:00,1790E-3,5C000400,-0724,0834,12070,029.0,045.5,0.254,751.5,01.17,0.508
2016-05-12 00:15:00,1916E-3,5C000400,-0724,0833,12108,029.0,045.5,0.254,751.5,01.17,0.508
2016-05-12 00:16:00,1878E-3,5C000400,-0724,0834,12277,029.0,045.5,0.253,751.5,01.17,0.508
2016-05-12 00:17:00,1881E-3,5C000400,-0724,0834,12033,029.0,045.5,0.254,751.4,01.17,0.508
2016-05-12 00:18:00,1944E-3,5C000400,-0724,0833,12049,029.0,045.4,0.253,751.4,01.17,0.508
2016-05-12 00:19:00,1866E-3,5C000400,-0724,0835,12165,029.1,045.4,0.253,751.4,01.17,0.508
2016-05-12 00:20:00,1878E-3,5C000400,-0724,0833,12011,029.0,045.5,0.254,751.4,01.17,0.508
2016-05-12 00:21:00,1926E-3,5C000400,-0724,0834,12141,029.0,045.5,0.253,751.4,01.17,0.508
2016-05-12 00:22:00,1935E-3,5C000400,-0724,0833,12226,029.1,045.5,0.253,751.4,01.17,0.508
2016-05-12 00:23:00,2027E-3,5C000400,-0724,0833,12202,029.1,045.5,0.254,751.4,01.17,0.508
2016-05-12 00:24:00,1850E-3,5C000400,-0724,0834,12204,029.1,045.4,0.253,751.4,01.17,0.508
2016-05-12 00:25:00,1859E-3,5C000400,-0724,0833,12190,029.1,045.4,0.253,751.4,01.17,0.508
2016-05-12 00:26:00,1746E-3,5C000400,-0724,0834,12107,029.1,045.5,0.253,751.4,01.17,0.508
2016-05-12 00:27:00,1959E-3,5C000400,-0724,0834,11986,029.1,045.4,0.253,751.4,01.17,0.508
2016-05-12 00:28:00,2030E-3,5C000400,-0724,0834,12185,029.1,045.4,0.253,751.4,01.17,0.508
2016-05-12 00:29:00,1851E-3,5C000400,-0724,0833,12327,029.1,045.5,0.253,751.4,01.17,0.508
2016-05-12 00:30:00,1829E-3,5C000400,-0724,0834,12185,029.1,045.4,0.253,751.4,01.17,0.508
2016-05-12 00:31:00,1881E-3,5C000400,-0724,0834,12114,029.1,045.4,0.253,751.4,01.17,0.508
2016-05-12 00:32:00,1834E-3,5C000400,-0724,0834,12147,029.1,045.5,0.253,751.4,01.17,0.508
2016-05-12 00:33:00,1784E-3,5C000400,-0724,0834,12051,029.1,045.4,0.253,751.4,01.17,0.508
2016-05-12 00:34:00,1908E-3,5C000400,-0724,0834,12154,029.1,045.5,0.253,751.4,01.17,0.508
2016-05-12 00:35:00,1903E-3,5C000400,-0724,0833,12237,029.1,045.5,0.253,751.3,01.17,0.508
2016-05-12 00:36:00,1867E-3,5C000400,-0724,0834,12188,029.1,045.5,0.253,751.3,01.17,0.508
2016-05-12 00:37:00,1859E-3,5C000400,-0724,0834,12070,029.1,045.5,0.253,751.3,01.17,0.508
2016-05-12 00:38:00,1859E-3,5C000400,-0724,0833,12213,029.2,045.5,0.253,751.3,01.17,0.508
2016-05-12 00:39:00,1948E-3,5C000400,-0724,0834,12200,029.2,045.4,0.253,751.3,01.17,0.508
2016-05-12 00:40:00,1811E-3,5C000400,-0724,0835,12218,029.1,045.4,0.253,751.3,01.17,0.508
2016-05-12 00:41:00,2012E-3,5C000400,-0724,0834,12062,029.2,045.4,0.253,751.3,01.17,0.508
2016-05-12 00:42:00,1867E-3,5C000400,-0724,0834,12102,029.2,045.5,0.253,751.3,01.17,0.508
2016-05-12 00:43:00,1987E-3,5C000400,-0724,0833,12232,029.2,045.5,0.253,751.3,01.17,0.508
2016-05-12 00:44:00,1920E-3,5C000400,-0724,0834,12238,029.2,045.5,0.253,751.3,01.17,0.508
2016-05-12 00:45:00,1861E-3,5C000400,-0724,0834,12157,029.2,045.5,0.253,751.3,01.17,0.508
2016-05-12 00:46:00,1896E-3,5C000400,-0724,0834,12129,029.2,045.4,0.253,751.3,01.17,0.508
2016-05-12 00:47:00,1985E-3,5C000400,-0724,0834,12161,029.2,045.5,0.253,751.3,01.17,0.508
2016-05-12 00:48:00,1843E-3,5C000400,-0724,0833,12112,029.2,045.4,0.253,751.3,01.17,0.508
2016-05-12 00:49:00,1882E-3,5C000400,-0724,0834,12127,029.2,045.4,0.253,751.3,01.17,0.508
2016-05-12 00:50:00,1770E-3,5C000400,-0724,0833,12173,029.2,045.4,0.253,751.3,01.17,0.508
2016-05-12 00:51:00,1738E-3,5C000400,-0724,0834,12085,029.2,045.5,0.253,751.3,01.17,0.508
2016-05-12 00:52:00,1853E-3,5C000400,-0724,0835,12117,029.2,045.5,0.253,751.3,01.17,0.508
2016-05-12 00:53:00,1781E-3,5C000400,-0724,0834,12275,029.2,045.5,0.253,751.3,01.17,0.508
2016-05-12 00:54:00,1842E-3,5C000400,-0724,0834,12199,029.2,045.5,0.253,751.3,01.17,0.508
2016-05-12 00:55:00,1822E-3,5C000400,-0724,0834,12242,029.2,045.5,0.253,751.3,01.17,0.508
2016-05-12 00:56:00,1841E-3,5C000400,-0724,0834,12150,029.2,045.5,0.253,751.3,01.17,0.508
2016-05-12 00:57:00,1822E-3,5C000400,-0724,0835,12211,029.2,045.5,0.253,751.3,01.17,0.508
2016-05-12 00:58:00,1898E-3,5C000400,-0724,0834,12284,029.2,045.4,0.253,751.3,01.17,0.508
2016-05-12 00:59:00,1957E-3,5C000400,-0724,0833,12268,029.3,045.4,0.253,751.3,01.17,0.508
2016-05-12 01:00:00,1862E-3,5C000400,-0724,0834,12237,029.3,045.5,0.253,751.3,01.17,0.508
2016-05-12 01:01:00,1906E-3,5C000400,-0724,0834,12174,029.2,045.5,0.253,751.3,01.17,0.508
2016-05-12 01:02:00,1983E-3,5C000400,-0724,0834,12155,029.3,045.5,0.253,751.3,01.17,0.508
2016-05-12 01:03:00,1908E-3,5C000400,-0724,0834,12106,029.3,045.5,0.253,751.3,01.17,0.508
2016-05-12 01:04:00,1898E-3,5C000400,-0724,0834,12216,029.3,045.5,0.253,751.3,01.17,0.508
2016-05-12 01:05:00,1814E-3,5C000400,-0724,0834,12223,029.3,045.5,0.253,751.3,01.17,0.508
2016-05-12 01:06:00,1753E-3,5C000400,-0724,0834,12158,029.3,045.5,0.253,751.3,01.17,0.508
2016-05-12 01:07:00,1764E-3,5C000400,-0724,0835,12297,029.3,045.5,0.252,751.3,01.17,0.508
2016-05-12 01:08:00,1874E-3,5C000400,-0724,0833,12126,029.3,045.5,0.253,751.2,01.17,0.508
2016-05-12 01:09:00,1861E-3,5C000400,-0724,0835,12248,029.3,045.5,0.253,751.2,01.17,0.508
2016-05-12 01:10:00,1968E-3,5C000400,-0724,0834,12158,029.3,045.5,0.253,751.2,01.17,0.508
2016-05-12 01:11:00,1968E-3,5C000400,-0724,0835,12128,029.3,045.5,0.253,751.3,01.17,0.508
2016-05-12 01:12:00,1906E-3,5C000400,-0724,0833,12122,029.3,045.5,0.253,751.3,01.17,0.508
2016-05-12 01:13:00,1957E-3,5C000400,-0724,0834,12156,029.3,045.5,0.253,751.2,01.17,0.508
2016-05-12 01:14:00,1832E-3,5C000400,-0724,0834,12189,029.3,045.5,0.253,751.2,01.17,0.508
2016-05-12 01:15:00,1858E-3,5C000400,-0724,0834,12125,029.3,045.5,0.253,751.2,01.17,0.508
2016-05-12 01:16:00,1824E-3,5C000400,-0724,0834,12205,029.4,045.5,0.253,751.2,01.17,0.508
2016-05-12 01:17:00,1940E-3,5C000400,-0724,0835,12229,029.4,045.5,0.253,751.2,01.17,0.508
2016-05-12 01:18:00,1986E-3,5C000400,-0724,0834,12029,029.4,045.5,0.253,751.2,01.17,0.508
2016-05-12 01:19:00,1906E-3,5C000400,-0724,0834,12097,029.4,045.5,0.253,751.2,01.17,0.508
2016-05-12 01:20:00,1967E-3,5C000400,-0724,0833,12243,029.4,045.5,0.252,751.2,01.17,0.508
2016-05-12 01:21:00,1918E-3,5C000400,-0724,0833,12203,029.4,045.5,0.253,751.2,01.17,0.508
2016-05-12 01:22:00,1920E-3,5C000400,-0724,0834,12191,029.4,045.5,0.253,751.2,01.17,0.508
2016-05-12 01:23:00,1899E-3,5C000400,-0724,0834,12200,029.4,045.5,0.252,751.2,01.17,0.508
2016-05-12 01:24:00,1902E-3,5C000400,-0724,0834,12132,029.4,045.5,0.253,751.1,01.17,0.508
2016-05-12 01:25:00,1967E-3,5C000400,-0724,0833,12197,029.4,045.5,0.253,751.1,01.17,0.508
2016-05-12 01:26:00,1811E-3,5C000400,-0724,0834,11949,029.4,045.5,0.252,751.2,01.17,0.508
2016-05-12 01:27:00,1938E-3,5C000400,-0724,0833,12197,029.4,045.5,0.253,751.2,01.17,0.508
2016-05-12 01:28:00,1835E-3,5C000400,-0724,0834,12196,029.4,045.5,0.252,751.1,01.17,0.508
2016-05-12 01:29:00,1963E-3,5C000400,-0724,0834,11997,029.4,045.4,0.253,751.2,01.17,0.508
2016-05-12 01:30:00,1847E-3,5C000400,-0724,0834,12117,029.5,045.5,0.253,751.2,01.17,0.508
2016-05-12 01:31:00,1868E-3,5C000400,-0724,0833,12101,029.5,045.4,0.253,751.2,01.17,0.508
2016-05-12 01:32:00,1930E-3,5C000400,-0724,0834,12236,029.4,045.5,0.252,751.1,01.17,0.508
2016-05-12 01:33:00,1939E-3,5C000400,-0724,0834,12221,029.5,045.5,0.253,751.2,01.17,0.508
2016-05-12 01:34:00,1845E-3,5C000400,-0724,0833,12234,029.5,045.5,0.253,751.1,01.17,0.508
2016-05-12 01:35:00,1937E-3,5C000400,-0724,0834,12194,029.5,045.5,0.252,751.2,01.17,0.508
2016-05-12 01:36:00,1861E-3,5C000400,-0724,0834,12250,029.5,045.5,0.253,751.2,01.17,0.508
2016-05-12 01:37:00,1854E-3,5C000400,-0724,0833,12153,029.5,045.5,0.252,751.1,01.17,0.508
2016-05-12 01:38:00,1834E-3,5C000400,-0724,0835,12112,029.5,045.5,0.253,751.1,01.17,0.508
2016-05-12 01:39:00,1961E-3,5C000400,-0724,0834,12086,029.5,045.5,0.253,751.2,01.17,0.508
2016-05-12 01:40:00,1954E-3,5C000400,-0724,0834,12091,029.5,045.5,0.252,751.2,01.17,0.508
2016-05-12 01:41:00,1838E-3,5C000400,-0724,0834,12032,029.5,045.5,0.253,751.2,01.17,0.508
2016-05-12 01:42:00,1738E-3,5C000400,-0724,0834,12177,029.5,045.5,0.252,751.1,01.17,0.508
2016-05-12 01:43:00,1969E-3,5C000400,-0724,0834,12067,029.5,045.5,0.252,751.1,01.17,0.508
2016-05-12 01:44:00,1844E-3,5C000400,-0724,0834,12184,029.5,045.5,0.253,751.1,01.17,0.508
2016-05-12 01:45:00,1965E-3,5C000400,-0724,0834,12233,029.5,045.5,0.252,751.1,01.17,0.508
2016-05-12 01:46:00,1864E-3,5C000400,-0724,0834,12146,029.5,045.4,0.252,751.0,01.17,0.508
2016-05-12 01:47:00,1900E-3,5C000400,-0724,0833,12026,029.5,045.5,0.252,751.1,01.17,0.508
2016-05-12 01:48:00,1864E-3,5C000400,-0724,0834,12305,029.5,045.5,0.252,751.2,01.17,0.508
2016-05-12 01:49:00,1849E-3,5C000400,-0724,0835,12072,029.6,045.5,0.253,751.1,01.17,0.508
2016-05-12 01:50:00,1907E-3,5C000400,-0724,0834,12248,029.6,045.5,0.252,751.1,01.17,0.508
2016-05-12 01:51:00,1831E-3,5C000400,-0724,0834,12129,029.6,045.5,0.252,751.0,01.17,0.508
2016-05-12 01:52:00,1906E-3,5C000400,-0724,0834,12243,029.6,045.5,0.252,751.2,01.17,0.508
2016-05-12 01:53:00,1814E-3,5C000400,-0724,0834,12113,029.5,045.5,0.252,751.2,01.17,0.508
2016-05-12 01:54:00,1771E-3,5C000400,-0724,0834,12083,029.6,045.5,0.253,751.1,01.17,0.508
2016-05-12 01:55:00,1969E-3,5C000400,-0724,0834,12087,029.6,045.5,0.252,751.1,01.17,0.508
2016-05-12 01:56:00,2001E-3,5C000400,-0724,0834,12117,029.6,045.5,0.252,751.2,01.17,0.508
2016-05-12 01:57:00,1832E-3,5C000400,-0724,0834,12020,029.6,045.5,0.252,751.3,01.17,0.508
2016-05-12 01:58:00,1885E-3,5C000400,-0724,0834,12175,029.6,045.5,0.252,751.3,01.17,0.508
2016-05-12 01:59:00,1904E-3,5C000400,-0724,0833,12115,029.6,045.5,0.252,751.2,01.17,0.508
2016-05-12 02:00:00,1780E-3,5C000400,-0724,0834,12059,029.6,045.5,0.252,751.1,01.17,0.508
2016-05-12 02:01:00,1919E-3,5C000400,-0724,0834,12243,029.6,045.5,0.252,751.1,01.17,0.508
2016-05-12 02:02:00,1921E-3,5C000400,-0724,0835,12125,029.6,045.5,0.252,751.3,01.17,0.508
2016-05-12 02:03:00,2078E-3,5C000400,-0724,0834,12101,029.6,045.5,0.252,751.2,01.17,0.508
2016-05-12 02:04:00,1842E-3,5C000400,-0724,0834,12033,029.6,045.5,0.252,751.2,01.17,0.508
2016-05-12 02:05:00,1739E-3,5C000400,-0724,0834,12056,029.6,045.5,0.252,751.2,01.17,0.508
2016-05-12 02:06:00,1795E-3,5C000400,-0724,0833,12288,029.6,045.5,0.252,751.2,01.17,0.508
2016-05-12 02:07:00,1877E-3,5C000400,-0724,0834,12175,029.7,045.4,0.252,751.3,01.17,0.508
2016-05-12 02:08:00,1807E-3,5C000400,-0724,0834,12190,029.7,045.5,0.252,751.3,01.17,0.508
2016-05-12 02:09:00,1918E-3,5C000400,-0724,0834,12093,029.7,045.5,0.253,751.3,01.17,0.508
2016-05-12 02:10:00,1879E-3,5C000400,-0724,0834,12185,029.7,045.5,0.252,751.2,01.17,0.508
2016-05-12 02:11:00,1863E-3,5C000400,-0724,0834,12083,029.7,045.5,0.252,751.3,01.17,0.508
2016-05-12 02:12:00,1829E-3,5C000400,-0724,0835,12221,029.7,045.5,0.252,751.3,01.17,0.508
2016-05-12 02:13:00,1745E-3,5C000400,-0724,0835,12082,029.7,045.5,0.252,751.3,01.17,0.508
2016-05-12 02:14:00,2043E-3,5C000400,-0724,0834,12170,029.7,045.4,0.252,751.3,01.17,0.508
2016-05-12 02:15:00,1836E-3,5C000400,-0724,0835,12103,029.7,045.5,0.252,751.2,01.17,0.508
2016-05-12 02:16:00,1913E-3,5C000400,-0724,0834,12271,029.7,045.5,0.252,751.4,01.17,0.508
2016-05-12 02:17:00,1768E-3,5C000400,-0724,0834,11960,029.7,045.5,0.252,751.4,01.17,0.508
2016-05-12 02:18:00,2031E-3,5C000400,-0724,0834,12083,029.8,045.5,0.252,751.3,01.17,0.508
2016-05-12 02:19:00,1945E-3,5C000400,-0724,0834,12208,029.7,045.5,0.252,751.3,01.17,0.508
2016-05-12 02:20:00,1970E-3,5C000400,-0724,0833,12223,029.8,045.5,0.252,751.4,01.17,0.508
2016-05-12 02:21:00,1701E-3,5C000400,-0724,0834,12054,029.8,045.5,0.252,751.3,01.17,0.508
2016-05-12 02:22:00,1966E-3,5C000400,-0724,0834,12142,029.8,045.5,0.252,751.3,01.17,0.508
2016-05-12 02:23:00,1880E-3,5C000400,-0724,0834,12090,029.8,045.5,0.252,751.3,01.17,0.508
2016-05-12 02:24:00,1959E-3,5C000400,-0724,0835,12113,029.8,045.5,0.252,751.3,01.17,0.508
2016-05-12 02:25:00,1868E-3,5C000400,-0724,0834,12137,029.8,045.5,0.252,751.4,01.17,0.508
2016-05-12 02:26:00,2057E-3,5C000400,-0724,0835,12078,029.8,045.5,0.252,751.3,01.17,0.508
2016-05-12 02:27:00,1885E-3,5C000400,-0724,0834,12039,029.8,045.5,0.252,751.3,01.17,0.508
2016-05-12 02:28:00,1809E-3,5C000400,-0724,0834,12192,029.8,045.5,0.252,751.3,01.17,0.508
2016-05-12 02:29:00,1860E-3,5C000400,-0724,0834,12067,029.9,045.5,0.252,751.3,01.17,0.508
2016-05-12 02:30:00,1798E-3,5C000400,-0724,0834,12100,029.8,045.5,0.252,751.3,01.17,0.508
2016-05-12 02:31:00,1937E-3,5C000400,-0724,0833,12039,029.8,045.5,0.252,751.3,01.17,0.508
2016-05-12 02:32:00,1903E-3,5C000400,-0724,0834,12034,029.8,045.5,0.252,751.3,01.17,0.508
2016-05-12 02:33:00,1837E-3,5C000400,-0724,0834,12263,029.8,045.5,0.252,751.3,01.17,0.508
2016-05-12 02:34:00,1968E-3,5C000400,-0724,0833,12107,029.8,045.5,0.252,751.3,01.17,0.508
2016-05-12 02:35:00,1869E-3,5C000400,-0724,0833,12259,029.8,045.5,0.252,751.3,01.17,0.508
2016-05-12 02:36:00,1981E-3,5C000400,-0724,0834,12104,029.8,045.5,0.252,751.3,01.17,0.508
2016-05-12 02:37:00,1835E-3,5C000400,-0724,0834,12131,029.9,045.5,0.252,751.3,01.17,0.508
2016-05-12 02:38:00,2013E-3,5C000400,-0724,0834,12205,029.8,045.5,0.252,751.4,01.17,0.508
2016-05-12 02:39:00,1718E-3,5C000400,-0724,0835,12136,029.9,045.5,0.252,751.3,01.17,0.508
2016-05-12 02:40:00,1748E-3,5C000400,-0724,0834,12191,029.9,045.5,0.252,751.3,01.17,0.508
2016-05-12 02:41:00,1852E-3,5C000400,-0724,0834,12188,029.9,045.5,0.251,751.3,01.17,0.508
2016-05-12 02:42:00,1883E-3,5C000400,-0724,0835,12169,029.9,045.5,0.252,751.3,01.17,0.508
2016-05-12 02:43:00,1910E-3,5C000400,-0724,0835,12175,029.9,045.5,0.252,751.3,01.17,0.508
2016-05-12 02:44:00,1808E-3,5C000400,-0724,0834,12127,029.9,045.5,0.252,751.4,01.17,0.508
2016-05-12 02:45:00,1809E-3,5C000400,-0724,0834,12192,029.9,045.5,0.252,751.4,01.17,0.508
2016-05-12 02:46:00,1857E-3,5C000400,-0724,0834,12106,029.9,045.5,0.252,751.4,01.17,0.508
2016-05-12 02:47:00,1805E-3,5C000400,-0724,0834,12081,029.9,045.5,0.252,751.4,01.17,0.508
2016-05-12 02:48:00,2050E-3,5C000400,-0724,0834,12211,029.9,045.5,0.251,751.4,01.17,0.508
2016-05-12 02:49:00,1885E-3,5C000400,-0724,0834,12062,029.9,045.5,0.252,751.3,01.17,0.508
2016-05-12 02:50:00,1995E-3,5C000400,-0724,0834,12244,029.9,045.5,0.252,751.4,01.17,0.508
2016-05-12 02:51:00,1901E-3,5C000400,-0724,0834,12062,030.0,045.5,0.252,751.4,01.17,0.508
2016-05-12 02:52:00,1963E-3,5C000400,-0724,0834,11964,030.0,045.5,0.252,751.4,01.17,0.508
2016-05-12 02:53:00,1886E-3,5C000400,-0724,0835,12175,030.0,045.5,0.252,751.4,01.17,0.508
2016-05-12 02:54:00,1949E-3,5C000400,-0724,0834,12171,030.0,045.5,0.252,751.4,01.17,0.508
2016-05-12 02:55:00,1939E-3,5C000400,-0724,0834,12280,030.0,045.5,0.251,751.4,01.17,0.508
2016-05-12 02:56:00,1922E-3,5C000400,-0724,0835,12222,030.0,045.5,0.252,751.4,01.17,0.508
2016-05-12 02:57:00,1886E-3,5C000400,-0724,0834,12059,030.0,045.5,0.252,751.5,01.17,0.508
2016-05-12 02:58:00,1922E-3,5C000400,-0724,0834,12076,030.0,045.5,0.252,751.4,01.17,0.508
2016-05-12 02:59:00,1833E-3,5C000400,-0724,0833,12200,030.0,045.5,0.252,751.3,01.17,0.508
2016-05-12 03:00:00,1846E-3,5C000400,-0724,0834,12010,030.0,045.5,0.251,751.4,01.17,0.508
2016-05-12 03:01:00,1870E-3,5C000400,-0724,0834,12060,030.0,045.5,0.252,751.3,01.17,0.508
2016-05-12 03:02:00,1902E-3,5C000400,-0724,0835,12121,030.0,045.5,0.251,751.3,01.17,0.508
2016-05-12 03:03:00,1959E-3,5C000400,-0724,0834,12094,030.0,045.5,0.252,751.4,01.17,0.508
2016-05-12 03:04:00,1834E-3,5C000400,-0724,0834,12146,030.0,045.5,0.251,751.5,01.17,0.508
2016-05-12 03:05:00,1916E-3,5C000400,-0724,0834,11986,030.0,045.5,0.251,751.5,01.17,0.508
2016-05-12 03:06:00,1839E-3,5C000400,-0724,0835,12188,030.1,045.5,0.252,751.4,01.17,0.508
2016-05-12 03:07:00,1827E-3,5C000400,-0724,0834,12004,030.1,045.5,0.251,751.4,01.17,0.508
2016-05-12 03:08:00,2034E-3,5C000400,-0724,0834,12150,030.1,045.5,0.252,751.4,01.17,0.508
2016-05-12 03:09:00,1936E-3,5C000400,-0724,0834,12029,030.1,045.5,0.252,751.4,01.17,0.508
2016-05-12 03:10:00,1875E-3,5C000400,-0724,0835,12032,030.1,045.5,0.252,751.3,01.17,0.508
2016-05-12 03:11:00,1964E-3,5C000400,-0724,0835,12296,030.1,045.5,0.251,751.5,01.17,0.508
2016-05-12 03:12:00,1940E-3,5C000400,-0724,0834,12025,030.1,045.5,0.252,751.5,01.17,0.508
2016-05-12 03:13:00,1986E-3,5C000400,-0724,0834,12206,030.1,045.5,0.251,751.5,01.17,0.508
2016-05-12 03:14:00,1851E-3,5C000400,-0724,0834,12264,030.1,045.5,0.252,751.5,01.17,0.508
2016-05-12 03:15:00,1887E-3,5C000400,-0724,0834,12028,030.1,045.5,0.251,751.5,01.17,0.508
2016-05-12 03:16:00,1804E-3,5C000400,-0724,0834,12157,030.1,045.5,0.251,751.5,01.17,0.508
2016-05-12 03:17:00,1883E-3,5C000400,-0724,0834,12152,030.2,045.5,0.251,751.5,01.17,0.508
2016-05-12 03:18:00,1986E-3,5C000400,-0724,0834,12262,030.2,045.5,0.251,751.5,01.17,0.508
2016-05-12 03:19:00,1872E-3,5C000400,-0724,0834,12148,030.2,045.5,0.251,751.5,01.17,0.508
2016-05-12 03:20:00,1982E-3,5C000400,-0724,0834,12200,030.1,045.5,0.251,751.5,01.17,0.508
2016-05-12 03:21:00,1836E-3,5C000400,-0724,0834,12249,030.2,045.5,0.251,751.5,01.17,0.508
2016-05-12 03:22:00,1780E-3,5C000400,-0724,0834,12004,030.2,045.5,0.251,751.5,01.17,0.508
2016-05-12 03:23:00,1809E-3,5C000400,-0724,0835,12154,030.2,045.5,0.251,751.5,01.17,0.508
2016-05-12 03:24:00,1868E-3,5C000400,-0724,0834,12193,030.2,045.5,0.251,751.5,01.17,0.508
2016-05-12 03:25:00,1873E-3,5C000400,-0724,0834,12097,030.2,045.5,0.251,751.5,01.17,0.508
2016-05-12 03:26:00,1834E-3,5C000400,-0724,0834,12147,030.2,045.5,0.251,751.5,01.17,0.508
2016-05-12 03:27:00,1843E-3,5C000400,-0724,0834,12123,030.2,045.5,0.251,751.5,01.17,0.508
2016-05-12 03:28:00,1884E-3,5C000400,-0724,0833,12063,030.2,045.5,0.251,751.5,01.17,0.508
2016-05-12 03:29:00,1826E-3,5C000400,-0724,0835,12202,030.2,045.5,0.251,751.5,01.17,0.508
2016-05-12 03:30:00,1967E-3,5C000400,-0724,0835,12248,030.2,045.5,0.251,751.5,01.17,0.508
2016-05-12 03:31:00,1913E-3,5C000400,-0724,0834,12282,030.3,045.5,0.251,751.5,01.17,0.508
2016-05-12 03:32:00,1869E-3,5C000400,-0724,0834,12055,030.3,045.5,0.251,751.5,01.17,0.508
2016-05-12 03:33:00,1848E-3,5C000400,-0724,0834,12146,030.3,045.5,0.251,751.5,01.17,0.508
2016-05-12 03:34:00,1955E-3,5C000400,-0724,0835,12149,030.3,045.5,0.251,751.5,01.17,0.508
2016-05-12 03:35:00,1851E-3,5C000400,-0724,0835,12132,030.3,045.5,0.251,751.5,01.17,0.508
2016-05-12 03:36:00,2004E-3,5C000400,-0724,0835,12060,030.3,045.5,0.251,751.5,01.17,0.508
2016-05-12 03:37:00,1969E-3,5C000400,-0724,0834,12093,030.3,045.5,0.251,751.5,01.17,0.508
2016-05-12 03:38:00,1906E-3,5C000400,-0724,0834,12117,030.3,045.5,0.251,751.6,01.17,0.508
2016-05-12 03:39:00,1852E-3,5C000400,-0724,0834,12195,030.3,045.5,0.251,751.6,01.17,0.508
2016-05-12 03:40:00,1923E-3,5C000400,-0724,0835,12172,030.3,045.5,0.251,751.6,01.17,0.508
2016-05-12 03:41:00,1827E-3,5C000400,-0724,0833,12165,030.3,045.5,0.251,751.6,01.17,0.508
2016-05-12 03:42:00,2012E-3,5C000400,-0724,0834,12268,030.3,045.5,0.251,751.5,01.17,0.508
2016-05-12 03:43:00,1976E-3,5C000400,-0724,0835,12201,030.3,045.5,0.251,751.5,01.17,0.508
2016-05-12 03:44:00,1930E-3,5C000400,-0724,0834,12258,030.4,045.5,0.251,751.5,01.17,0.508
2016-05-12 03:45:00,1805E-3,5C000400,-0724,0834,12127,030.4,045.5,0.251,751.6,01.17,0.508
2016-05-12 03:46:00,1775E-3,5C000400,-0724,0834,11983,030.4,045.5,0.251,751.6,01.17,0.508
2016-05-12 03:47:00,1834E-3,5C000400,-0724,0834,12255,030.4,045.5,0.251,751.6,01.17,0.508
2016-05-12 03:48:00,1860E-3,5C000400,-0724,0834,12243,030.4,045.5,0.251,751.6,01.17,0.508
2016-05-12 03:49:00,1918E-3,5C000400,-0724,0834,12245,030.4,045.5,0.251,751.6,01.17,0.508
2016-05-12 03:50:00,1890E-3,5C000400,-0724,0834,12273,030.4,045.5,0.251,751.5,01.17,0.508
2016-05-12 03:51:00,1834E-3,5C000400,-0724,0835,12183,030.4,045.5,0.251,751.5,01.17,0.508
2016-05-12 03:52:00,1768E-3,5C000400,-0724,0834,12189,030.4,045.5,0.251,751.5,01.17,0.508
2016-05-12 03:53:00,1864E-3,5C000400,-0724,0835,12036,030.4,045.5,0.251,751.5,01.17,0.508
2016-05-12 03:54:00,1865E-3,5C000400,-0724,0834,12175,030.4,045.5,0.251,751.5,01.17,0.508
2016-05-12 03:55:00,1861E-3,5C000400,-0724,0834,12132,030.4,045.5,0.251,751.6,01.17,0.508
2016-05-12 03:56:00,1797E-3,5C000400,-0724,0834,12125,030.4,045.5,0.251,751.6,01.17,0.508
2016-05-12 03:57:00,1910E-3,5C000400,-0724,0834,12122,030.5,045.5,0.250,751.5,01.17,0.508
2016-05-12 03:58:00,1888E-3,5C000400,-0724,0834,12025,030.5,045.5,0.251,751.6,01.17,0.508
2016-05-12 03:59:00,1967E-3,5C000400,-0724,0834,11900,030.5,045.5,0.250,751.5,01.17,0.508
2016-05-12 04:00:00,1892E-3,5C000400,-0724,0834,12168,030.5,045.5,0.251,751.5,01.17,0.508
2016-05-12 04:01:00,1892E-3,5C000400,-0724,0834,12196,030.5,045.5,0.250,751.5,01.17,0.508
2016-05-12 04:02:00,1853E-3,5C000400,-0724,0834,12110,030.5,045.5,0.251,751.5,01.17,0.508
2016-05-12 04:03:00,1737E-3,5C000400,-0724,0835,12048,030.5,045.5,0.251,751.6,01.17,0.508
2016-05-12 04:04:00,1994E-3,5C000400,-0724,0835,12007,030.5,045.5,0.251,751.5,01.17,0.508
2016-05-12 04:05:00,1843E-3,5C000400,-0724,0834,12232,030.5,045.5,0.251,751.6,01.17,0.508
2016-05-12 04:06:00,1833E-3,5C000400,-0724,0834,12169,030.5,045.5,0.251,751.6,01.17,0.508
2016-05-12 04:07:00,1821E-3,5C000400,-0724,0835,12198,030.5,045.5,0.251,751.5,01.17,0.508
2016-05-12 04:08:00,1905E-3,5C000400,-0724,0835,12134,030.6,045.5,0.251,751.5,01.17,0.508
2016-05-12 04:09:00,1778E-3,5C000400,-0724,0834,12083,030.6,045.5,0.251,751.5,01.17,0.508
2016-05-12 04:10:00,1863E-3,5C000400,-0724,0834,12113,030.6,045.5,0.251,751.5,01.17,0.508
2016-05-12 04:11:00,2031E-3,5C000400,-0724,0836,12066,030.6,045.5,0.251,751.5,01.17,0.508
2016-05-12 04:12:00,1986E-3,5C000400,-0724,0834,12101,030.6,045.5,0.251,751.6,01.17,0.508
2016-05-12 04:13:00,1824E-3,5C000400,-0724,0835,12117,030.6,045.5,0.251,751.5,01.17,0.508
2016-05-12 04:14:00,1859E-3,5C000400,-0724,0835,12128,030.6,045.5,0.250,751.5,01.17,0.508
2016-05-12 04:15:00,1904E-3,5C000400,-0724,0835,12202,030.6,045.5,0.251,751.5,01.17,0.508
2016-05-12 04:16:00,1839E-3,5C000400,-0724,0835,12105,030.6,045.5,0.250,751.5,01.17,0.508
2016-05-12 04:17:00,2022E-3,5C000400,-0724,0834,12201,030.6,045.5,0.251,751.5,01.17,0.508
2016-05-12 04:18:00,1913E-3,5C000400,-0724,0834,12162,030.6,045.5,0.250,751.6,01.17,0.508
2016-05-12 04:19:00,1879E-3,5C000400,-0724,0835,12130,030.6,045.5,0.251,751.6,01.17,0.508
2016-05-12 04:20:00,1942E-3,5C000400,-0724,0835,12179,030.6,045.5,0.250,751.5,01.17,0.508